This is the latest recevied weather packets stored in our database for station/object N5PLO-10. If no packets are shown the sender has not sent any weather packets the latest 10 day(s).
| Time | Temp. | Humidity | Pressure | Rain* | Wind** | Luminosity | Snow |
|---|---|---|---|---|---|---|---|
| 1777313738 | 32.22° C | 71% | 1016.9 hPa | 0 mm | - | 294 W/m² | - |
| 1777313435 | 31.67° C | 71% | 1016.8 hPa | 0 mm | - | 278 W/m² | - |
| 1777313126 | 31.67° C | 72% | 1016.8 hPa | 0 mm | - | 350 W/m² | - |
| 1777312823 | 32.22° C | 71% | 1016.8 hPa | 0 mm | - | 338 W/m² | - |
| 1777312520 | 32.22° C | 72% | 1017.1 hPa | 0 mm | - | 362 W/m² | - |
| 1777312216 | 32.22° C | 71% | 1016.9 hPa | 0 mm | - | 670 W/m² | - |
| 1777311914 | 32.78° C | 70% | 1016.8 hPa | 0 mm | - | 432 W/m² | - |
| 1777311610 | 32.22° C | 71% | 1016.8 hPa | 0 mm | - | 732 W/m² | - |
| 1777311309 | 31.67° C | 74% | 1016.8 hPa | 0 mm | - | 384 W/m² | - |
| 1777311006 | 30.56° C | 76% | 1016.7 hPa | 0 mm | - | 340 W/m² | - |
| 1777310703 | 30.56° C | 76% | 1016.8 hPa | 0 mm | - | 313 W/m² | - |
| 1777310400 | 30.56° C | 76% | 1016.8 hPa | 0 mm | - | 367 W/m² | - |
| 1777310097 | 30° C | 77% | 1016.9 hPa | 0 mm | - | 326 W/m² | - |
| 1777309796 | 30.56° C | 76% | 1016.8 hPa | 0 mm | - | 157 W/m² | - |
| 1777309493 | 30.56° C | 76% | 1016.8 hPa | 0 mm | - | 244 W/m² | - |
| 1777309190 | 30° C | 77% | 1016.8 hPa | 0 mm | - | 489 W/m² | - |
| 1777308888 | 30.56° C | 77% | 1017 hPa | 0 mm | - | 165 W/m² | - |
| 1777308583 | 30.56° C | 77% | 1016.8 hPa | 0 mm | - | 355 W/m² | - |
| 1777308279 | 30.56° C | 76% | 1016.7 hPa | 0 mm | - | 205 W/m² | - |
| 1777307974 | 31.11° C | 76% | 1016.5 hPa | 0 mm | - | 232 W/m² | - |
| 1777307672 | 30.56° C | 77% | 1016.4 hPa | 0 mm | - | 398 W/m² | - |
| 1777307369 | 30.56° C | 76% | 1016.4 hPa | 0 mm | - | 234 W/m² | - |
| 1777307066 | 30.56° C | 78% | 1016.3 hPa | 0 mm | - | 440 W/m² | - |
| 1777306764 | 30° C | 79% | 1016.5 hPa | 0 mm | - | 272 W/m² | - |
| 1777306461 | 29.44° C | 81% | 1016.3 hPa | 0 mm | - | 468 W/m² | - |
* Rain latest hour (hover to see other rain measurements)
** Current wind speed in m/s (hover to see current wind gust speed)